| time (UTC) | temp C | wind direction | speed KPH | gust KPH | rain 1hr cm | rain 24hr cm | rain mn cm | humidity % | barometer mb |
| 20260509064402 | 11 | 249 | 0.0 | 0.0 | 0.00 | 0.00 | 0.00 | 86 | 1011.8 |
| 20260509063903 | 11 | 249 | 0.0 | 1.6 | 0.00 | 0.00 | 0.00 | 86 | 1011.8 |
| 20260509063403 | 11 | 249 | 0.0 | 1.6 | 0.00 | 0.00 | 0.00 | 86 | 1011.8 |
| 20260509062904 | 10 | 249 | 0.0 | 0.0 | 0.00 | 0.00 | 0.00 | 85 | 1011.9 |
| 20260509062403 | 10 | 249 | 0.0 | 0.0 | 0.00 | 0.00 | 0.00 | 85 | 1012.4 |
| 20260509061903 | 10 | 249 | 0.0 | 0.0 | 0.00 | 0.00 | 0.00 | 85 | 1012.4 |
| 20260509061404 | 10 | 249 | 0.0 | 0.0 | 0.00 | 0.00 | 0.00 | 85 | 1012.4 |
| 20260509060903 | 10 | 249 | 0.0 | 0.0 | 0.00 | 0.00 | 0.00 | 85 | 1012.4 |
| 20260509060403 | 11 | 249 | 0.0 | 0.0 | 0.00 | 0.00 | 0.00 | 85 | 1012.4 |
| 20260509055904 | 10 | 249 | 0.0 | 0.0 | 0.00 | 0.00 | 0.00 | 85 | 1012.4 |
| 20260509055402 | 10 | 249 | 0.0 | 0.0 | 0.00 | 0.00 | 0.00 | 84 | 1012.4 |
| 20260509054903 | 10 | 249 | 0.0 | 0.0 | 0.00 | 0.00 | 0.00 | 84 | 1012.4 |
| 20260509054404 | 10 | 249 | 0.0 | 0.0 | 0.00 | 0.00 | 0.00 | 84 | 1012.5 |
| 20260509053903 | 11 | 249 | 0.0 | 0.0 | 0.00 | 0.00 | 0.00 | 84 | 1012.5 |
| 20260509053402 | 11 | 249 | 0.0 | 0.0 | 0.00 | 0.00 | 0.00 | 84 | 1012.5 |
| 20260509052904 | 11 | 249 | 0.0 | 1.6 | 0.00 | 0.00 | 0.00 | 83 | 1012.6 |
| 20260509051903 | 11 | 249 | 0.0 | 0.0 | 0.00 | 0.00 | 0.00 | 83 | 1012.6 |
| 20260509051404 | 11 | 249 | 0.0 | 0.0 | 0.00 | 0.00 | 0.00 | 83 | 1012.5 |
| 20260509050903 | 11 | 249 | 0.0 | 0.0 | 0.00 | 0.00 | 0.00 | 83 | 1012.5 |
| 20260509050403 | 11 | 249 | 0.0 | 0.0 | 0.00 | 0.00 | 0.00 | 83 | 1012.5 |
| 20260509045904 | 11 | 249 | 0.0 | 0.0 | 0.00 | 0.00 | 0.00 | 82 | 1012.8 |
| 20260509045403 | 11 | 249 | 0.0 | 0.0 | 0.00 | 0.00 | 0.00 | 82 | 1012.8 |
| 20260509044904 | 11 | 249 | 0.0 | 0.0 | 0.00 | 0.00 | 0.00 | 82 | 1012.8 |
| 20260509044403 | 11 | 249 | 0.0 | 0.0 | 0.00 | 0.00 | 0.00 | 82 | 1012.8 |
| 20260509043905 | 11 | 249 | 0.0 | 0.0 | 0.00 | 0.00 | 0.00 | 81 | 1012.8 |
| 20260509043403 | 11 | 249 | 0.0 | 0.0 | 0.00 | 0.00 | 0.00 | 81 | 1012.8 |
| 20260509042903 | 11 | 249 | 0.0 | 0.0 | 0.00 | 0.00 | 0.00 | 81 | 1012.8 |
| 20260509042404 | 11 | 249 | 0.0 | 0.0 | 0.00 | 0.00 | 0.00 | 80 | 1012.8 |
| 20260509041403 | 11 | 249 | 0.0 | 1.6 | 0.00 | 0.00 | 0.00 | 80 | 1012.7 |
| 20260509040904 | 12 | 249 | 0.0 | 0.0 | 0.00 | 0.00 | 0.00 | 79 | 1012.7 |
| 20260509040403 | 12 | 249 | 0.0 | 0.0 | 0.00 | 0.00 | 0.00 | 79 | 1012.8 |
| 20260509035903 | 12 | 249 | 0.0 | 0.0 | 0.00 | 0.00 | 0.00 | 79 | 1012.8 |
| 20260509035404 | 12 | 249 | 0.0 | 0.0 | 0.00 | 0.00 | 0.00 | 79 | 1012.8 |
| 20260509034903 | 12 | 249 | 0.0 | 0.0 | 0.00 | 0.00 | 0.00 | 78 | 1012.8 |
| 20260509033904 | 12 | 249 | 0.0 | 0.0 | 0.00 | 0.00 | 0.00 | 78 | 1012.9 |
| 20260509032404 | 12 | 249 | 0.0 | 0.0 | 0.00 | 0.00 | 0.00 | 77 | 1013.3 |
| 20260509031903 | 12 | 249 | 0.0 | 1.6 | 0.00 | 0.00 | 0.00 | 77 | 1013.3 |
| 20260509031403 | 12 | 249 | 0.0 | 0.0 | 0.00 | 0.00 | 0.00 | 77 | 1013.3 |
| 20260509030903 | 12 | 249 | 0.0 | 1.6 | 0.00 | 0.00 | 0.00 | 77 | 1013.3 |
| 20260509025904 | 13 | 249 | 0.0 | 0.0 | 0.00 | 0.00 | 0.00 | 75 | 1013.4 |
| 20260509025404 | 13 | 249 | 0.0 | 0.0 | 0.00 | 0.00 | 0.00 | 75 | 1013.4 |
| 20260509024904 | 13 | 249 | 0.0 | 0.0 | 0.00 | 0.00 | 0.00 | 75 | 1013.4 |
| 20260509024403 | 13 | 249 | 0.0 | 0.0 | 0.00 | 0.00 | 0.00 | 75 | 1013.1 |
| 20260509023903 | 13 | 249 | 0.0 | 0.0 | 0.00 | 0.00 | 0.00 | 74 | 1013.1 |
| 20260509023404 | 13 | 249 | 0.0 | 0.0 | 0.00 | 0.00 | 0.00 | 73 | 1013.1 |
| 20260509022404 | 13 | 249 | 0.0 | 0.0 | 0.00 | 0.00 | 0.00 | 72 | 1013.1 |
| 20260509021904 | 13 | 249 | 0.0 | 0.0 | 0.00 | 0.00 | 0.00 | 72 | 1013.1 |
| 20260509021403 | 13 | 249 | 0.0 | 0.0 | 0.00 | 0.00 | 0.00 | 72 | 1013.0 |
| 20260509020903 | 13 | 249 | 0.0 | 0.0 | 0.00 | 0.00 | 0.00 | 71 | 1013.0 |
| 20260509020404 | 14 | 249 | 0.0 | 0.0 | 0.00 | 0.00 | 0.00 | 70 | 1013.0 |
| 20260509015903 | 14 | 249 | 0.0 | 0.0 | 0.00 | 0.00 | 0.00 | 70 | 1012.7 |
| 20260509014904 | 14 | 249 | 0.0 | 0.0 | 0.00 | 0.00 | 0.00 | 69 | 1012.7 |
| 20260509014403 | 15 | 249 | 0.0 | 0.0 | 0.00 | 0.00 | 0.00 | 70 | 1012.7 |
| 20260509013903 | 15 | 249 | 0.0 | 0.0 | 0.00 | 0.00 | 0.00 | 70 | 1012.7 |
| 20260509013404 | 15 | 249 | 0.0 | 0.0 | 0.00 | 0.00 | 0.00 | 69 | 1012.7 |
| 20260509012903 | 15 | 249 | 0.0 | 0.0 | 0.00 | 0.00 | 0.00 | 68 | 1012.9 |
| 20260509011904 | 15 | 249 | 0.0 | 0.0 | 0.00 | 0.00 | 0.00 | 67 | 1012.9 |
| 20260509011403 | 16 | 249 | 0.0 | 0.0 | 0.00 | 0.00 | 0.00 | 67 | 1012.9 |
| 20260509010903 | 16 | 249 | 0.0 | 0.0 | 0.00 | 0.00 | 0.00 | 67 | 1012.9 |
| 20260509010403 | 16 | 249 | 0.0 | 0.0 | 0.00 | 0.00 | 0.00 | 66 | 1012.9 |
| 20260509005904 | 16 | 249 | 0.0 | 0.0 | 0.00 | 0.00 | 0.00 | 64 | 1012.9 |
| 20260509004903 | 16 | 249 | 0.0 | 0.0 | 0.00 | 0.00 | 0.00 | 67 | 1012.8 |
| 20260509003903 | 17 | 249 | 0.0 | 0.0 | 0.00 | 0.00 | 0.00 | 64 | 1012.8 |
| 20260509003403 | 17 | 249 | 0.0 | 0.0 | 0.00 | 0.00 | 0.00 | 64 | 1012.8 |
| 20260509002904 | 17 | 249 | 0.0 | 0.0 | 0.00 | 0.00 | 0.00 | 64 | 1012.9 |
| 20260509002403 | 17 | 249 | 0.0 | 0.0 | 0.00 | 0.00 | 0.00 | 63 | 1012.9 |
| 20260509001904 | 17 | 249 | 0.0 | 0.0 | 0.00 | 0.00 | 0.00 | 64 | 1012.9 |
| 20260509001403 | 18 | 249 | 0.0 | 1.6 | 0.00 | 0.00 | 0.00 | 61 | 1012.9 |
| 20260509000904 | 18 | 249 | 0.0 | 1.6 | 0.00 | 0.00 | 0.00 | 59 | 1012.9 |
| 20260509000404 | 18 | 249 | 0.0 | 3.2 | 0.00 | 0.00 | 0.00 | 60 | 1012.9 |
| 20260508235903 | 18 | 249 | 0.0 | 0.0 | 0.00 | 0.00 | 0.00 | 61 | 1012.8 |
| 20260508235403 | 18 | 249 | 0.0 | 0.0 | 0.00 | 0.00 | 0.00 | 60 | 1012.8 |
| 20260508234905 | 18 | 249 | 0.0 | 0.0 | 0.00 | 0.00 | 0.00 | 59 | 1012.8 |
| 20260508233904 | 18 | 249 | 1.6 | 3.2 | 0.00 | 0.00 | 0.00 | 55 | 1012.7 |
| 20260508233404 | 18 | 257 | 0.0 | 1.6 | 0.00 | 0.00 | 0.00 | 55 | 1012.7 |
| 20260508232903 | 19 | 257 | 0.0 | 3.2 | 0.00 | 0.00 | 0.00 | 57 | 1012.8 |
| 20260508232404 | 19 | 263 | 1.6 | 4.8 | 0.00 | 0.00 | 0.00 | 55 | 1012.8 |
| 20260508231904 | 19 | 250 | 0.0 | 3.2 | 0.00 | 0.00 | 0.00 | 54 | 1012.8 |
| 20260508231403 | 19 | 243 | 1.6 | 4.8 | 0.00 | 0.00 | 0.00 | 53 | 1012.8 |
| 20260508230903 | 19 | 236 | 1.6 | 4.8 | 0.00 | 0.00 | 0.00 | 53 | 1012.8 |
| 20260508230405 | 19 | 208 | 0.0 | 3.2 | 0.00 | 0.00 | 0.00 | 53 | 1012.8 |
| 20260508225904 | 19 | 205 | 3.2 | 4.8 | 0.00 | 0.00 | 0.00 | 52 | 1012.9 |
| 20260508224905 | 20 | 248 | 1.6 | 4.8 | 0.00 | 0.00 | 0.00 | 51 | 1012.9 |
| 20260508224403 | 20 | 243 | 1.6 | 3.2 | 0.00 | 0.00 | 0.00 | 51 | 1013.1 |
| 20260508223903 | 20 | 251 | 0.0 | 1.6 | 0.00 | 0.00 | 0.00 | 50 | 1013.1 |
| 20260508223404 | 20 | 251 | 1.6 | 4.8 | 0.00 | 0.00 | 0.00 | 47 | 1013.1 |
| 20260508222404 | 20 | 251 | 1.6 | 4.8 | 0.00 | 0.00 | 0.00 | 46 | 1013.3 |
| 20260508221404 | 20 | 249 | 3.2 | 8.0 | 0.00 | 0.00 | 0.00 | 44 | 1012.6 |
| 20260508220903 | 20 | 260 | 3.2 | 4.8 | 0.00 | 0.00 | 0.00 | 44 | 1012.6 |
| 20260508220404 | 20 | 224 | 3.2 | 4.8 | 0.00 | 0.00 | 0.00 | 43 | 1012.6 |
| 20260508215903 | 20 | 230 | 3.2 | 4.8 | 0.00 | 0.00 | 0.00 | 41 | 1012.6 |
| 20260508215403 | 21 | 241 | 3.2 | 8.0 | 0.00 | 0.00 | 0.00 | 41 | 1012.6 |
| 20260508214904 | 21 | 265 | 1.6 | 3.2 | 0.00 | 0.00 | 0.00 | 41 | 1012.6 |
| 20260508214403 | 21 | 263 | 3.2 | 11.3 | 0.00 | 0.00 | 0.00 | 40 | 1012.6 |
| 20260508213904 | 21 | 260 | 3.2 | 9.7 | 0.00 | 0.00 | 0.00 | 41 | 1012.6 |
| 20260508213405 | 21 | 256 | 4.8 | 9.7 | 0.00 | 0.00 | 0.00 | 39 | 1012.6 |
| 20260508212903 | 21 | 223 | 4.8 | 9.7 | 0.00 | 0.00 | 0.00 | 38 | 1012.6 |
| 20260508212403 | 21 | 264 | 3.2 | 8.0 | 0.00 | 0.00 | 0.00 | 36 | 1013.0 |
| 20260508211404 | 21 | 214 | 1.6 | 4.8 | 0.00 | 0.00 | 0.00 | 35 | 1013.0 |
| 20260508210904 | 21 | 252 | 3.2 | 8.0 | 0.00 | 0.00 | 0.00 | 34 | 1013.0 |
| 20260508205905 | 21 | 202 | 3.2 | 9.7 | 0.00 | 0.00 | 0.00 | 33 | 1013.1 |
| 20260508205403 | 21 | 223 | 3.2 | 9.7 | 0.00 | 0.00 | 0.00 | 29 | 1013.1 |
| 20260508204903 | 21 | 159 | 3.2 | 8.0 | 0.00 | 0.00 | 0.00 | 31 | 1013.1 |
| 20260508204405 | 22 | 168 | 3.2 | 11.3 | 0.00 | 0.00 | 0.00 | 33 | 1013.1 |
| 20260508203904 | 22 | 117 | 4.8 | 11.3 | 0.00 | 0.00 | 0.00 | 32 | 1013.1 |
| 20260508203404 | 21 | 226 | 4.8 | 9.7 | 0.00 | 0.00 | 0.00 | 32 | 1013.1 |
| 20260508202905 | 21 | 207 | 4.8 | 8.0 | 0.00 | 0.00 | 0.00 | 32 | 1013.1 |
| 20260508202403 | 21 | 270 | 4.8 | 9.7 | 0.00 | 0.00 | 0.00 | 32 | 1013.1 |
| 20260508201904 | 21 | 201 | 4.8 | 4.8 | 0.00 | 0.00 | 0.00 | 31 | 1013.1 |
| 20260508201404 | 22 | 214 | 4.8 | 8.0 | 0.00 | 0.00 | 0.00 | 33 | 1013.1 |
| 20260508200904 | 22 | 116 | 6.4 | 11.3 | 0.00 | 0.00 | 0.00 | 31 | 1013.1 |
| 20260508200403 | 22 | 214 | 6.4 | 11.3 | 0.00 | 0.00 | 0.00 | 31 | 1013.4 |
| 20260508195905 | 22 | 175 | 1.6 | 8.0 | 0.00 | 0.00 | 0.00 | 31 | 1013.4 |
| 20260508195404 | 22 | 129 | 3.2 | 9.7 | 0.00 | 0.00 | 0.00 | 33 | 1013.4 |
| 20260508194904 | 22 | 237 | 1.6 | 8.0 | 0.00 | 0.00 | 0.00 | 29 | 1013.4 |
| 20260508193904 | 22 | 187 | 3.2 | 8.0 | 0.00 | 0.00 | 0.00 | 31 | 1013.8 |
| 20260508192904 | 22 | 213 | 3.2 | 4.8 | 0.00 | 0.00 | 0.00 | 35 | 1014.4 |
| 20260508192403 | 22 | 252 | 1.6 | 4.8 | 0.00 | 0.00 | 0.00 | 33 | 1014.4 |
| 20260508191904 | 22 | 205 | 6.4 | 9.7 | 0.00 | 0.00 | 0.00 | 31 | 1014.4 |
| 20260508191404 | 22 | 231 | 3.2 | 4.8 | 0.00 | 0.00 | 0.00 | 30 | 1014.4 |
| 20260508190404 | 22 | 288 | 1.6 | 3.2 | 0.00 | 0.00 | 0.00 | 35 | 1014.4 |
| 20260508185905 | 22 | 218 | 0.0 | 4.8 | 0.00 | 0.00 | 0.00 | 32 | 1014.4 |
| 20260508185404 | 22 | 229 | 1.6 | 4.8 | 0.00 | 0.00 | 0.00 | 30 | 1014.4 |
| 20260508184903 | 22 | 111 | 3.2 | 9.7 | 0.00 | 0.00 | 0.00 | 28 | 1014.4 |
| 20260508184405 | 22 | 113 | 3.2 | 9.7 | 0.00 | 0.00 | 0.00 | 28 | 1014.5 |
| 20260508183904 | 22 | 179 | 3.2 | 11.3 | 0.00 | 0.00 | 0.00 | 30 | 1014.6 |
| 20260508183403 | 22 | 218 | 1.6 | 8.0 | 0.00 | 0.00 | 0.00 | 31 | 1014.7 |
| 20260508182905 | 22 | 167 | 1.6 | 9.7 | 0.00 | 0.00 | 0.00 | 34 | 1015.1 |
| 20260508182404 | 22 | 237 | 4.8 | 9.7 | 0.00 | 0.00 | 0.00 | 29 | 1015.1 |
| 20260508181405 | 21 | 27 | 1.6 | 3.2 | 0.00 | 0.00 | 0.00 | 36 | 1015.1 |
| 20260508180904 | 21 | 255 | 6.4 | 11.3 | 0.00 | 0.00 | 0.00 | 29 | 1015.1 |
| 20260508180403 | 21 | 98 | 1.6 | 11.3 | 0.00 | 0.00 | 0.00 | 28 | 1015.2 |
| 20260508175904 | 21 | 78 | 1.6 | 4.8 | 0.00 | 0.00 | 0.00 | 35 | 1015.6 |
| 20260508174904 | 21 | 97 | 4.8 | 9.7 | 0.00 | 0.00 | 0.00 | 29 | 1015.6 |
| 20260508174404 | 21 | 222 | 3.2 | 9.7 | 0.00 | 0.00 | 0.00 | 27 | 1015.6 |
| 20260508173903 | 21 | 114 | 4.8 | 9.7 | 0.00 | 0.00 | 0.00 | 31 | 1015.6 |
| 20260508173403 | 21 | 135 | 8.0 | 11.3 | 0.00 | 0.00 | 0.00 | 32 | 1015.6 |
| 20260508172905 | 21 | 194 | 4.8 | 11.3 | 0.00 | 0.00 | 0.00 | 34 | 1015.7 |
| 20260508172404 | 21 | 248 | 4.8 | 8.0 | 0.00 | 0.00 | 0.00 | 34 | 1015.7 |
| 20260508171903 | 21 | 166 | 3.2 | 9.7 | 0.00 | 0.00 | 0.00 | 34 | 1015.9 |
| 20260508171405 | 20 | 26 | 0.0 | 4.8 | 0.00 | 0.00 | 0.00 | 38 | 1015.9 |
| 20260508170904 | 20 | 255 | 3.2 | 11.3 | 0.00 | 0.00 | 0.00 | 35 | 1015.9 |
| 20260508165905 | 20 | 100 | 4.8 | 8.0 | 0.00 | 0.00 | 0.00 | 34 | 1016.6 |
| 20260508165404 | 20 | 111 | 3.2 | 9.7 | 0.00 | 0.00 | 0.00 | 38 | 1016.6 |
| 20260508164903 | 20 | 257 | 4.8 | 9.7 | 0.00 | 0.00 | 0.00 | 36 | 1016.6 |
| 20260508164405 | 20 | 104 | 3.2 | 9.7 | 0.00 | 0.00 | 0.00 | 37 | 1016.6 |
| 20260508163903 | 20 | 104 | 1.6 | 9.7 | 0.00 | 0.00 | 0.00 | 41 | 1016.6 |
| 20260508163403 | 20 | 211 | 4.8 | 9.7 | 0.00 | 0.00 | 0.00 | 39 | 1016.6 |
| 20260508162905 | 20 | 123 | 6.4 | 11.3 | 0.00 | 0.00 | 0.00 | 38 | 1016.9 |
| 20260508162404 | 20 | 227 | 3.2 | 4.8 | 0.00 | 0.00 | 0.00 | 37 | 1016.9 |
| 20260508161405 | 19 | 150 | 3.2 | 8.0 | 0.00 | 0.00 | 0.00 | 41 | 1017.2 |
| 20260508160904 | 19 | 144 | 3.2 | 11.3 | 0.00 | 0.00 | 0.00 | 38 | 1017.2 |
| 20260508160404 | 19 | 233 | 3.2 | 8.0 | 0.00 | 0.00 | 0.00 | 41 | 1017.2 |
| 20260508155905 | 19 | 267 | 3.2 | 8.0 | 0.00 | 0.00 | 0.00 | 39 | 1017.3 |
| 20260508155404 | 19 | 104 | 3.2 | 9.7 | 0.00 | 0.00 | 0.00 | 42 | 1017.3 |
| 20260508154904 | 18 | 38 | 1.6 | 9.7 | 0.00 | 0.00 | 0.00 | 43 | 1017.3 |
| 20260508154405 | 18 | 232 | 4.8 | 9.7 | 0.00 | 0.00 | 0.00 | 40 | 1017.3 |
| 20260508153904 | 18 | 222 | 4.8 | 9.7 | 0.00 | 0.00 | 0.00 | 43 | 1017.3 |
| 20260508153404 | 17 | 265 | 4.8 | 11.3 | 0.00 | 0.00 | 0.00 | 41 | 1017.3 |
| 20260508152905 | 17 | 244 | 4.8 | 11.3 | 0.00 | 0.00 | 0.00 | 42 | 1017.7 |
| 20260508152404 | 18 | 252 | 3.2 | 12.9 | 0.00 | 0.00 | 0.00 | 45 | 1017.7 |
| 20260508151904 | 17 | 170 | 1.6 | 8.0 | 0.00 | 0.00 | 0.00 | 46 | 1017.7 |
| 20260508150904 | 17 | 255 | 3.2 | 9.7 | 0.00 | 0.00 | 0.00 | 51 | 1017.7 |
| 20260508150404 | 17 | 144 | 1.6 | 4.8 | 0.00 | 0.00 | 0.00 | 52 | 1017.7 |
| 20260508145907 | 17 | 210 | 4.8 | 9.7 | 0.00 | 0.00 | 0.00 | 51 | 1017.7 |
| 20260508145404 | 17 | 238 | 4.8 | 8.0 | 0.00 | 0.00 | 0.00 | 48 | 1017.7 |
| 20260508144403 | 17 | 116 | 4.8 | 4.8 | 0.00 | 0.00 | 0.00 | 53 | 1017.8 |
| 20260508143905 | 17 | 98 | 3.2 | 4.8 | 0.00 | 0.00 | 0.00 | 57 | 1017.6 |
| 20260508142904 | 17 | 102 | 1.6 | 4.8 | 0.00 | 0.00 | 0.00 | 61 | 1017.7 |
| 20260508142405 | 16 | 240 | 1.6 | 4.8 | 0.00 | 0.00 | 0.00 | 57 | 1017.7 |
| 20260508141904 | 17 | 91 | 4.8 | 8.0 | 0.00 | 0.00 | 0.00 | 57 | 1017.8 |
| 20260508141404 | 17 | 64 | 1.6 | 4.8 | 0.00 | 0.00 | 0.00 | 58 | 1017.8 |
| 20260508140905 | 16 | 39 | 1.6 | 3.2 | 0.00 | 0.00 | 0.00 | 60 | 1017.8 |
| 20260508140403 | 16 | 84 | 1.6 | 4.8 | 0.00 | 0.00 | 0.00 | 59 | 1017.8 |
| 20260508135903 | 16 | 93 | 1.6 | 4.8 | 0.00 | 0.00 | 0.00 | 63 | 1017.8 |
| 20260508135404 | 16 | 132 | 3.2 | 4.8 | 0.00 | 0.00 | 0.00 | 64 | 1017.8 |
| 20260508134404 | 16 | 97 | 1.6 | 4.8 | 0.00 | 0.00 | 0.00 | 64 | 1017.8 |
| 20260508133905 | 16 | 110 | 0.0 | 0.0 | 0.00 | 0.00 | 0.00 | 64 | 1017.8 |
| 20260508133404 | 15 | 110 | 0.0 | 0.0 | 0.00 | 0.00 | 0.00 | 67 | 1017.6 |
| 20260508132904 | 15 | 110 | 0.0 | 0.0 | 0.00 | 0.00 | 0.00 | 68 | 1017.6 |
| 20260508132405 | 15 | 110 | 0.0 | 0.0 | 0.00 | 0.00 | 0.00 | 66 | 1017.6 |
| 20260508131904 | 14 | 110 | 1.6 | 3.2 | 0.00 | 0.00 | 0.00 | 67 | 1017.6 |
| 20260508131404 | 13 | 110 | 0.0 | 1.6 | 0.00 | 0.00 | 0.00 | 70 | 1017.9 |
| 20260508130404 | 12 | 110 | 1.6 | 3.2 | 0.00 | 0.00 | 0.00 | 73 | 1017.9 |
| 20260508125903 | 11 | 110 | 1.6 | 3.2 | 0.00 | 0.00 | 0.00 | 74 | 1017.9 |
| 20260508125405 | 11 | 111 | 1.6 | 3.2 | 0.00 | 0.00 | 0.00 | 78 | 1017.9 |
| 20260508124904 | 10 | 273 | 1.6 | 1.6 | 0.00 | 0.00 | 0.00 | 80 | 1017.9 |
| 20260508124404 | 10 | 273 | 1.6 | 3.2 | 0.00 | 0.00 | 0.00 | 83 | 1017.9 |
| 20260508123904 | 10 | 273 | 1.6 | 3.2 | 0.00 | 0.00 | 0.00 | 86 | 1017.9 |
| 20260508123405 | 10 | 273 | 0.0 | 3.2 | 0.00 | 0.00 | 0.00 | 87 | 1017.9 |
| 20260508122904 | 9 | 273 | 0.0 | 0.0 | 0.00 | 0.00 | 0.00 | 88 | 1017.6 |
| 20260508122404 | 9 | 273 | 0.0 | 0.0 | 0.00 | 0.00 | 0.00 | 88 | 1017.6 |
| 20260508121405 | 8 | 273 | 0.0 | 0.0 | 0.00 | 0.00 | 0.00 | 88 | 1017.4 |
| 20260508120904 | 8 | 273 | 0.0 | 1.6 | 0.00 | 0.00 | 0.00 | 88 | 1017.4 |
| 20260508120404 | 8 | 273 | 0.0 | 1.6 | 0.00 | 0.00 | 0.00 | 88 | 1017.4 |
| 20260508115905 | 8 | 273 | 0.0 | 1.6 | 0.00 | 0.00 | 0.00 | 88 | 1016.7 |
| 20260508115403 | 8 | 273 | 0.0 | 0.0 | 0.00 | 0.03 | 0.00 | 87 | 1016.7 |
| 20260508114904 | 7 | 273 | 0.0 | 0.0 | 0.00 | 0.03 | 0.00 | 87 | 1016.7 |
| 20260508114405 | 7 | 273 | 0.0 | 0.0 | 0.00 | 0.03 | 0.00 | 87 | 1016.7 |
| 20260508113904 | 7 | 273 | 0.0 | 0.0 | 0.00 | 0.05 | 0.00 | 87 | 1016.7 |
| 20260508113404 | 7 | 273 | 0.0 | 0.0 | 0.00 | 0.05 | 0.00 | 87 | 1016.7 |
| 20260508112404 | 7 | 273 | 0.0 | 0.0 | 0.00 | 0.05 | 0.00 | 87 | 1016.4 |
| 20260508111904 | 7 | 273 | 0.0 | 0.0 | 0.00 | 0.05 | 0.00 | 87 | 1016.4 |
| 20260508111405 | 7 | 273 | 0.0 | 0.0 | 0.00 | 0.05 | 0.00 | 87 | 1016.2 |
| 20260508110404 | 7 | 273 | 0.0 | 0.0 | 0.00 | 0.13 | 0.00 | 87 | 1016.2 |
| 20260508105405 | 7 | 273 | 0.0 | 0.0 | 0.00 | 0.23 | 0.00 | 86 | 1016.1 |
| 20260508104403 | 7 | 273 | 0.0 | 0.0 | 0.00 | 0.25 | 0.00 | 86 | 1015.7 |
| 20260508103904 | 7 | 273 | 0.0 | 0.0 | 0.00 | 0.28 | 0.00 | 86 | 1015.7 |
| 20260508102903 | 7 | 273 | 0.0 | 0.0 | 0.00 | 0.33 | 0.00 | 86 | 1015.3 |
| 20260508102404 | 7 | 273 | 0.0 | 0.0 | 0.00 | 0.36 | 0.00 | 86 | 1015.3 |
| 20260508101902 | 7 | 273 | 0.0 | 0.0 | 0.00 | 0.41 | 0.00 | 86 | 1015.3 |
| 20260508101402 | 7 | 273 | 0.0 | 0.0 | 0.00 | 0.43 | 0.00 | 86 | 1015.3 |
| 20260508100903 | 7 | 273 | 0.0 | 0.0 | 0.00 | 0.43 | 0.00 | 86 | 1015.3 |
| 20260508100403 | 7 | 273 | 0.0 | 0.0 | 0.00 | 0.43 | 0.00 | 86 | 1015.3 |
| 20260508095902 | 7 | 273 | 0.0 | 0.0 | 0.00 | 0.46 | 0.00 | 86 | 1015.3 |
| 20260508095403 | 7 | 273 | 0.0 | 0.0 | 0.00 | 0.48 | 0.00 | 86 | 1015.3 |
| 20260508094402 | 7 | 273 | 0.0 | 0.0 | 0.00 | 0.51 | 0.00 | 86 | 1015.1 |
| 20260508093903 | 7 | 273 | 0.0 | 0.0 | 0.00 | 0.56 | 0.00 | 86 | 1015.1 |
| 20260508093402 | 7 | 273 | 0.0 | 0.0 | 0.00 | 0.61 | 0.00 | 86 | 1015.1 |
| 20260508092903 | 7 | 273 | 0.0 | 0.0 | 0.00 | 0.76 | 0.00 | 86 | 1015.1 |
| 20260508092402 | 7 | 273 | 0.0 | 0.0 | 0.00 | 0.81 | 0.00 | 86 | 1015.1 |
| 20260508091903 | 7 | 273 | 0.0 | 0.0 | 0.00 | 0.81 | 0.00 | 86 | 1015.1 |
| 20260508090403 | 7 | 273 | 0.0 | 1.6 | 0.00 | 0.81 | 0.00 | 86 | 1015.1 |
| 20260508085902 | 7 | 273 | 0.0 | 0.0 | 0.00 | 0.81 | 0.00 | 86 | 1015.1 |
| 20260508085403 | 7 | 273 | 0.0 | 0.0 | 0.00 | 0.84 | 0.00 | 86 | 1015.1 |
| 20260508084903 | 8 | 273 | 0.0 | 0.0 | 0.00 | 0.89 | 0.00 | 86 | 1015.1 |
| 20260508084402 | 7 | 273 | 0.0 | 0.0 | 0.00 | 0.91 | 0.00 | 86 | 1015.0 |
| 20260508083904 | 8 | 273 | 0.0 | 1.6 | 0.00 | 0.91 | 0.00 | 86 | 1015.0 |
| 20260508083402 | 8 | 273 | 0.0 | 1.6 | 0.00 | 0.91 | 0.00 | 86 | 1015.0 |
| 20260508082903 | 8 | 273 | 0.0 | 1.6 | 0.00 | 0.91 | 0.00 | 86 | 1015.0 |
| 20260508082404 | 8 | 273 | 0.0 | 0.0 | 0.00 | 0.91 | 0.00 | 86 | 1015.0 |
| 20260508081903 | 8 | 273 | 0.0 | 0.0 | 0.00 | 0.91 | 0.00 | 86 | 1015.0 |
| 20260508081403 | 8 | 273 | 0.0 | 0.0 | 0.00 | 0.91 | 0.00 | 86 | 1015.2 |
| 20260508080903 | 8 | 273 | 0.0 | 0.0 | 0.00 | 0.91 | 0.00 | 86 | 1015.2 |
| 20260508080403 | 8 | 273 | 0.0 | 0.0 | 0.00 | 0.91 | 0.00 | 86 | 1015.2 |
| 20260508074903 | 8 | 273 | 0.0 | 0.0 | 0.00 | 0.97 | 0.00 | 86 | 1015.2 |
| 20260508074403 | 8 | 273 | 0.0 | 0.0 | 0.00 | 0.97 | 0.00 | 86 | 1015.2 |
| 20260508073904 | 8 | 273 | 0.0 | 0.0 | 0.00 | 0.97 | 0.00 | 86 | 1015.2 |
| 20260508073403 | 8 | 273 | 0.0 | 0.0 | 0.00 | 0.97 | 0.00 | 86 | 1015.2 |
| 20260508072902 | 8 | 273 | 0.0 | 0.0 | 0.00 | 0.97 | 0.00 | 85 | 1015.1 |
| 20260508072404 | 8 | 273 | 0.0 | 0.0 | 0.00 | 0.97 | 0.00 | 85 | 1015.1 |
| 20260508071903 | 8 | 273 | 0.0 | 0.0 | 0.00 | 0.97 | 0.00 | 86 | 1015.1 |
| 20260508071403 | 8 | 273 | 0.0 | 0.0 | 0.00 | 0.97 | 0.00 | 86 | 1015.3 |
| 20260508070902 | 8 | 273 | 0.0 | 0.0 | 0.00 | 0.97 | 0.00 | 86 | 1015.3 |
| 20260508070404 | 8 | 273 | 0.0 | 0.0 | 0.00 | 0.97 | 0.00 | 86 | 1015.3 |
| 20260508065903 | 8 | 273 | 0.0 | 1.6 | 0.00 | 0.97 | 0.00 | 85 | 1015.4 |
| 20260508065403 | 8 | 273 | 0.0 | 0.0 | 0.00 | 0.97 | 0.00 | 85 | 1015.4 |